Location: Bouillancy
(49.1149°N, 2.9308°E)
Time: 08:06:16
(UTC+00:00)

ATLAS 2AS CENTAUR R/B - Pass Details

Date: 30 September 2020
Orbit: 939 x 1273 km, 63.7° (Epoch: 27 October)

Event Time Altitude Azimuth Distance (km) Brightness Sun altitude
Rises 19:27:05 0° 236° (SW) 4,214 6.3 -20.0°
Reaches altitude 10° 19:29:56 10° 240° (WSW) 3,260 5.7 -20.4°
Maximum altitude 19:37:48 61° 320° (NW) 1,426 3.5 -21.6°
Drops below altitude 10° 19:45:32 10° 40° (NE) 3,199 5.0 -22.8°
Sets 19:48:19 0° 44° (NE) 4,132 5.6 -23.2°
